Regional Weather Roundup
Issued by NWS Mt. Holly, NJ

Home | Current Version | Previous Version | Text Only | Print | Product List | Glossary On
Versions: 1 2 3 4 5 6 7 8 9 10 11 12 13 14 15 16 17 18 19 20 21 22 23 24 25 26 27 28 29 30 31 32 33 34 35 36 37 38 39 40 41 42 43 44 45 46 47 48 49 50
000
ASUS41 KPHI 230810
RWRPHI

REGIONAL WEATHER ROUNDUP
NATIONAL WEATHER SERVICE MOUNT HOLLY NJ
300 AM EST SUN NOV 23 2014

NOTE:  "FAIR" INDICATES FEW OR NO CLOUDS BELOW 12,000 FEET WITH NO
SIGNIFICANT WEATHER AND/OR OBSTRUCTIONS TO VISIBILITY.

 * = STATION DOES NOT REPORT PRECIPITATION (E.G. RAIN, SNOW, ETC.)
        OR FOG.

NJZ015>026-230900-
SOUTHERN NEW JERSEY

CITY           SKY/WX    TMP DP  RH WIND       PRES   REMARKS
POMONA         MOCLDY    43  23  45 SW13      30.23F
RIO GRANDE*    CLOUDY    45  23  42 SW13      30.25S
MILLVILLE      PTCLDY    43  23  45 VRB6      30.24F
WRIGHTSTOWN    PTCLDY    39  21  49 S3        30.19F
MOUNT HOLLY    PTCLDY    40  22  48 VRB5      30.21F
TRENTON        MOCLDY    40  24  53 SW9       30.19F WCI  34

$$
NJZ001>014-230900-
NORTHERN NEW JERSEY

CITY           SKY/WX    TMP DP  RH WIND       PRES   REMARKS
SUSSEX         CLOUDY    38  21  50 SW7       30.15S WCI  33
ANDOVER*         N/A     38  20  48 VRB3      30.16S
MORRISTOWN       N/A     43  19  39 SW3       30.18S
NEWARK         CLOUDY    42  23  46 SW8       30.19S
TETERBORO      CLOUDY    41  22  46 SW5       30.17F
CALDWELL       CLOUDY    41  19  41 VRB5      30.18S
SOMERVILLE     CLOUDY    38  22  52 CALM      30.18F
ALLAIRE*       MOCLDY    41  19  42 SW8       30.20F
TOMS RIVER*    PTCLDY    39  21  48 CALM      30.22F

$$
PAZ043-044-047-054-055-060>062-066>071-230900-
EASTERN PENNSYLVANIA

CITY           SKY/WX    TMP DP  RH WIND       PRES   REMARKS
PHILADELPHIA   MOCLDY    40  25  55 S8        30.22F WCI  34
NORTH PHILA    PTCLDY    41  22  46 S3        30.22F
BLUE BELL      MOCLDY    37  27  65 SW3       30.19F
DOYLESTOWN     MOCLDY    39  22  50 SW5       30.18F
QUAKERTOWN*    CLOUDY    39  23  52 SW5       30.18F
POTTSTOWN      MOCLDY    37  22  54 CALM      30.21S
LANCASTER      CLOUDY    34  24  67 CALM      30.18F
COATESVILLE    PTCLDY    37  19  48 CALM      30.19S
READING        CLOUDY    39  21  48 CALM      30.17F
ALLENTOWN      CLOUDY    37  23  56 NW3       30.19R
MOUNT POCONO   CLOUDY    40  17  39 W9        30.10F WCI  34
HAZLETON       CLOUDY    43  19  39 CALM      30.15F
WILKES BARRE   CLOUDY    40  18  41 CALM      30.14R

$$
DEZALL-MDZ008-012-015-019-020-230900-
DELAWARE AND EASTERN MARYLAND

CITY           SKY/WX    TMP DP  RH WIND       PRES   REMARKS
WILMINGTON     CLEAR     39  24  55 S5        30.22F
DOVER          PTCLDY    40  24  53 S12       30.21F WCI  33
GEORGETOWN     PTCLDY    36  27  69 S7        30.26F WCI  30
EASTON         PTCLDY    42  24  49 SW8       30.28F
PATUXENT       PTCLDY    42  15  33 SW6       30.27S
OCEAN CITY     CLEAR     41  25  53 SW7       30.29F
WALLOPS ISLAND CLEAR     41  24  51 W8        30.30S
CAMBRIDGE      CLEAR     37  27  65 S6        30.25F WCI  33
SALISBURY      CLEAR     29  24  82 S3        30.28F

$$
PAZ001-021-NYZ056-072-MDZ011-DCZ001-230900-
OTHER NEARBY LOCATIONS

CITY           SKY/WX    TMP DP  RH WIND       PRES   REMARKS
HARRISBURG     CLOUDY    37  22  54 SE6       30.17F WCI  32
STATE COLLEGE  CLOUDY    33  29  84 CALM      30.12S
WILLIAMSPORT   CLOUDY    32  28  85 SW3       30.16S
BINGHAMTON     CLOUDY    38  30  73 SW10      30.06S WCI  31
NEW YORK CITY  CLOUDY    44  20  38 SW12G23   30.19F
BALTIMORE      MOCLDY    44  17  33 SW7       30.20F
WASHINGTON DC  PTCLDY    44  18  35 S10       30.23F

$$


USA.gov is the U.S. government's official web portal to all federal, state and local government web resources and services.